owner,sensor,date,latitude,longitude,vertical_datum,sea_water_temperature,qcFlag 
DISL,ioos:station:DISL:PPTA:1,2016-09-01T00:00:00Z,30.2791,-87.5561,0.0,30.58,2 
DISL,ioos:station:DISL:PPTA:1,2016-09-01T00:30:00Z,30.2791,-87.5561,0.0,30.61,2 
DISL,ioos:station:DISL:PPTA:1,2016-09-01T01:00:00Z,30.2791,-87.5561,0.0,30.51,2 
DISL,ioos:station:DISL:PPTA:1,2016-09-01T01:30:00Z,30.2791,-87.5561,0.0,30.51,2 
DISL,ioos:station:DISL:PPTA:1,2016-09-01T02:00:00Z,30.2791,-87.5561,0.0,30.58,2 
DISL,ioos:station:DISL:PPTA:1,2016-09-01T02:30:00Z,30.2791,-87.5561,0.0,30.52,2 
DISL,ioos:station:DISL:PPTA:1,2016-09-01T03:00:00Z,30.2791,-87.5561,0.0,30.55,2 
DISL,ioos:station:DISL:PPTA:1,2016-09-01T03:30:00Z,30.2791,-87.5561,0.0,30.51,2 
DISL,ioos:station:DISL:PPTA:1,2016-09-01T04:00:00Z,30.2791,-87.5561,0.0,30.67,2 
DISL,ioos:station:DISL:PPTA:1,2016-09-01T04:30:00Z,30.2791,-87.5561,0.0,30.63,2 
DISL,ioos:station:DISL:PPTA:1,2016-09-01T05:00:00Z,30.2791,-87.5561,0.0,30.47,2 
DISL,ioos:station:DISL:PPTA:1,2016-09-01T05:30:00Z,30.2791,-87.5561,0.0,30.22,2 
DISL,ioos:station:DISL:PPTA:1,2016-09-01T06:00:00Z,30.2791,-87.5561,0.0,30.16,2 
DISL,ioos:station:DISL:PPTA:1,2016-09-01T06:30:00Z,30.2791,-87.5561,0.0,30.09,2 
DISL,ioos:station:DISL:PPTA:1,2016-09-01T07:00:00Z,30.2791,-87.5561,0.0,30.06,2 
DISL,ioos:station:DISL:PPTA:1,2016-09-01T07:30:00Z,30.2791,-87.5561,0.0,30.06,2 
DISL,ioos:station:DISL:PPTA:1,2016-09-01T08:00:00Z,30.2791,-87.5561,0.0,30.04,2 
DISL,ioos:station:DISL:PPTA:1,2016-09-01T08:30:00Z,30.2791,-87.5561,0.0,30.05,2 
DISL,ioos:station:DISL:PPTA:1,2016-09-01T09:00:00Z,30.2791,-87.5561,0.0,30.04,2 
DISL,ioos:station:DISL:PPTA:1,2016-09-01T09:30:00Z,30.2791,-87.5561,0.0,30.04,2 
DISL,ioos:station:DISL:PPTA:1,2016-09-01T10:00:00Z,30.2791,-87.5561,0.0,30.04,2 
DISL,ioos:station:DISL:PPTA:1,2016-09-01T10:30:00Z,30.2791,-87.5561,0.0,30.02,2 
DISL,ioos:station:DISL:PPTA:1,2016-09-01T11:00:00Z,30.2791,-87.5561,0.0,30.0,2 
DISL,ioos:station:DISL:PPTA:1,2016-09-01T11:30:00Z,30.2791,-87.5561,0.0,29.98,2 
DISL,ioos:station:DISL:PPTA:1,2016-09-01T12:00:00Z,30.2791,-87.5561,0.0,29.96,2 
DISL,ioos:station:DISL:PPTA:1,2016-09-01T13:30:00Z,30.2791,-87.5561,0.0,29.87,2 
DISL,ioos:station:DISL:PPTA:1,2016-09-01T14:00:00Z,30.2791,-87.5561,0.0,29.93,2 
DISL,ioos:station:DISL:PPTA:1,2016-09-01T14:30:00Z,30.2791,-87.5561,0.0,29.94,2 
DISL,ioos:station:DISL:PPTA:1,2016-09-01T15:00:00Z,30.2791,-87.5561,0.0,29.72,2 
DISL,ioos:station:DISL:PPTA:1,2016-09-01T15:30:00Z,30.2791,-87.5561,0.0,29.89,2 
DISL,ioos:station:DISL:PPTA:1,2016-09-01T16:00:00Z,30.2791,-87.5561,0.0,29.96,2 
DISL,ioos:station:DISL:PPTA:1,2016-09-01T16:30:00Z,30.2791,-87.5561,0.0,29.96,2 
DISL,ioos:station:DISL:PPTA:1,2016-09-01T17:00:00Z,30.2791,-87.5561,0.0,30.01,2 
DISL,ioos:station:DISL:PPTA:1,2016-09-01T17:30:00Z,30.2791,-87.5561,0.0,30.01,2 
DISL,ioos:station:DISL:PPTA:1,2016-09-01T18:00:00Z,30.2791,-87.5561,0.0,30.02,2 
DISL,ioos:station:DISL:PPTA:1,2016-09-01T18:30:00Z,30.2791,-87.5561,0.0,30.09,2 
DISL,ioos:station:DISL:PPTA:1,2016-09-01T19:00:00Z,30.2791,-87.5561,0.0,30.08,2 
DISL,ioos:station:DISL:PPTA:1,2016-09-01T19:30:00Z,30.2791,-87.5561,0.0,30.06,2 
DISL,ioos:station:DISL:PPTA:1,2016-09-01T20:00:00Z,30.2791,-87.5561,0.0,30.01,2 
DISL,ioos:station:DISL:PPTA:1,2016-09-01T20:30:00Z,30.2791,-87.5561,0.0,30.13,2 
DISL,ioos:station:DISL:PPTA:1,2016-09-01T21:00:00Z,30.2791,-87.5561,0.0,30.07,2 
DISL,ioos:station:DISL:PPTA:1,2016-09-01T21:30:00Z,30.2791,-87.5561,0.0,30.17,2 
DISL,ioos:station:DISL:PPTA:1,2016-09-01T22:00:00Z,30.2791,-87.5561,0.0,30.12,2 
DISL,ioos:station:DISL:PPTA:1,2016-09-01T22:30:00Z,30.2791,-87.5561,0.0,29.94,2 
DISL,ioos:station:DISL:PPTA:1,2016-09-01T23:00:00Z,30.2791,-87.5561,0.0,29.9,2 
DISL,ioos:station:DISL:PPTA:1,2016-09-01T23:30:00Z,30.2791,-87.5561,0.0,29.96,2 
DISL,ioos:station:DISL:PPTA:1,2016-09-02T00:00:00Z,30.2791,-87.5561,0.0,30.13,2 
DISL,ioos:station:DISL:PPTA:1,2016-09-02T00:30:00Z,30.2791,-87.5561,0.0,30.13,2 
DISL,ioos:station:DISL:PPTA:1,2016-09-02T01:00:00Z,30.2791,-87.5561,0.0,29.99,2 
DISL,ioos:station:DISL:PPTA:1,2016-09-02T01:30:00Z,30.2791,-87.5561,0.0,29.99,2 
DISL,ioos:station:DISL:PPTA:1,2016-09-02T02:00:00Z,30.2791,-87.5561,0.0,29.8,2 
DISL,ioos:station:DISL:PPTA:1,2016-09-02T02:30:00Z,30.2791,-87.5561,0.0,29.79,2 
DISL,ioos:station:DISL:PPTA:1,2016-09-02T03:00:00Z,30.2791,-87.5561,0.0,29.82,2 
DISL,ioos:station:DISL:PPTA:1,2016-09-02T03:30:00Z,30.2791,-87.5561,0.0,29.77,2 
DISL,ioos:station:DISL:PPTA:1,2016-09-02T04:00:00Z,30.2791,-87.5561,0.0,29.77,2 
DISL,ioos:station:DISL:PPTA:1,2016-09-02T04:30:00Z,30.2791,-87.5561,0.0,29.76,2 
DISL,ioos:station:DISL:PPTA:1,2016-09-02T05:00:00Z,30.2791,-87.5561,0.0,30.03,2 
DISL,ioos:station:DISL:PPTA:1,2016-09-02T05:30:00Z,30.2791,-87.5561,0.0,30.09,2 
DISL,ioos:station:DISL:PPTA:1,2016-09-02T06:00:00Z,30.2791,-87.5561,0.0,30.06,2 
DISL,ioos:station:DISL:PPTA:1,2016-09-02T06:30:00Z,30.2791,-87.5561,0.0,29.92,2 
DISL,ioos:station:DISL:PPTA:1,2016-09-02T07:00:00Z,30.2791,-87.5561,0.0,29.64,2 
DISL,ioos:station:DISL:PPTA:1,2016-09-02T07:30:00Z,30.2791,-87.5561,0.0,29.67,2 
DISL,ioos:station:DISL:PPTA:1,2016-09-02T08:00:00Z,30.2791,-87.5561,0.0,29.68,2 
DISL,ioos:station:DISL:PPTA:1,2016-09-02T08:30:00Z,30.2791,-87.5561,0.0,29.71,2 
DISL,ioos:station:DISL:PPTA:1,2016-09-02T09:00:00Z,30.2791,-87.5561,0.0,29.69,2 
DISL,ioos:station:DISL:PPTA:1,2016-09-02T09:30:00Z,30.2791,-87.5561,0.0,29.64,2 
DISL,ioos:station:DISL:PPTA:1,2016-09-02T10:00:00Z,30.2791,-87.5561,0.0,29.56,2 
DISL,ioos:station:DISL:PPTA:1,2016-09-02T10:30:00Z,30.2791,-87.5561,0.0,29.56,2 
DISL,ioos:station:DISL:PPTA:1,2016-09-02T11:00:00Z,30.2791,-87.5561,0.0,29.54,2 
DISL,ioos:station:DISL:PPTA:1,2016-09-02T11:30:00Z,30.2791,-87.5561,0.0,29.54,2 
DISL,ioos:station:DISL:PPTA:1,2016-09-02T12:00:00Z,30.2791,-87.5561,0.0,29.52,2 
DISL,ioos:station:DISL:PPTA:1,2016-09-02T12:30:00Z,30.2791,-87.5561,0.0,29.49,2 
DISL,ioos:station:DISL:PPTA:1,2016-09-02T13:00:00Z,30.2791,-87.5561,0.0,29.49,2 
DISL,ioos:station:DISL:PPTA:1,2016-09-02T13:30:00Z,30.2791,-87.5561,0.0,29.51,2 
DISL,ioos:station:DISL:PPTA:1,2016-09-02T14:00:00Z,30.2791,-87.5561,0.0,29.58,2 
DISL,ioos:station:DISL:PPTA:1,2016-09-02T14:30:00Z,30.2791,-87.5561,0.0,29.66,2 
DISL,ioos:station:DISL:PPTA:1,2016-09-02T15:00:00Z,30.2791,-87.5561,0.0,29.66,2 
DISL,ioos:station:DISL:PPTA:1,2016-09-02T15:30:00Z,30.2791,-87.5561,0.0,29.69,2 
DISL,ioos:station:DISL:PPTA:1,2016-09-02T16:00:00Z,30.2791,-87.5561,0.0,29.73,2 
DISL,ioos:station:DISL:PPTA:1,2016-09-02T16:30:00Z,30.2791,-87.5561,0.0,29.77,2 
DISL,ioos:station:DISL:PPTA:1,2016-09-02T17:00:00Z,30.2791,-87.5561,0.0,29.8,2 
DISL,ioos:station:DISL:PPTA:1,2016-09-02T17:30:00Z,30.2791,-87.5561,0.0,29.88,2 
DISL,ioos:station:DISL:PPTA:1,2016-09-02T18:00:00Z,30.2791,-87.5561,0.0,29.93,2 
DISL,ioos:station:DISL:PPTA:1,2016-09-02T18:30:00Z,30.2791,-87.5561,0.0,30.42,2 
DISL,ioos:station:DISL:PPTA:1,2016-09-02T19:00:00Z,30.2791,-87.5561,0.0,30.54,2 
DISL,ioos:station:DISL:PPTA:1,2016-09-02T19:30:00Z,30.2791,-87.5561,0.0,30.96,2 
DISL,ioos:station:DISL:PPTA:1,2016-09-02T20:00:00Z,30.2791,-87.5561,0.0,30.47,2 
DISL,ioos:station:DISL:PPTA:1,2016-09-02T20:30:00Z,30.2791,-87.5561,0.0,31.08,2 
DISL,ioos:station:DISL:PPTA:1,2016-09-02T21:00:00Z,30.2791,-87.5561,0.0,30.92,2 
DISL,ioos:station:DISL:PPTA:1,2016-09-02T21:30:00Z,30.2791,-87.5561,0.0,30.68,2 
DISL,ioos:station:DISL:PPTA:1,2016-09-02T22:00:00Z,30.2791,-87.5561,0.0,30.66,2 
DISL,ioos:station:DISL:PPTA:1,2016-09-02T22:30:00Z,30.2791,-87.5561,0.0,30.52,2 
DISL,ioos:station:DISL:PPTA:1,2016-09-02T23:00:00Z,30.2791,-87.5561,0.0,30.35,2 
DISL,ioos:station:DISL:PPTA:1,2016-09-02T23:30:00Z,30.2791,-87.5561,0.0,30.52,2 
DISL,ioos:station:DISL:PPTA:1,2016-09-03T00:00:00Z,30.2791,-87.5561,0.0,30.48,2 
DISL,ioos:station:DISL:PPTA:1,2016-09-03T00:30:00Z,30.2791,-87.5561,0.0,30.38,2 
DISL,ioos:station:DISL:PPTA:1,2016-09-03T01:00:00Z,30.2791,-87.5561,0.0,30.46,2 
DISL,ioos:station:DISL:PPTA:1,2016-09-03T01:30:00Z,30.2791,-87.5561,0.0,30.42,2 
DISL,ioos:station:DISL:PPTA:1,2016-09-03T02:00:00Z,30.2791,-87.5561,0.0,30.41,2 
DISL,ioos:station:DISL:PPTA:1,2016-09-03T02:30:00Z,30.2791,-87.5561,0.0,30.43,2 
DISL,ioos:station:DISL:PPTA:1,2016-09-03T03:00:00Z,30.2791,-87.5561,0.0,30.45,2 
DISL,ioos:station:DISL:PPTA:1,2016-09-03T03:30:00Z,30.2791,-87.5561,0.0,30.56,2 
DISL,ioos:station:DISL:PPTA:1,2016-09-03T04:00:00Z,30.2791,-87.5561,0.0,30.44,2 
DISL,ioos:station:DISL:PPTA:1,2016-09-03T04:30:00Z,30.2791,-87.5561,0.0,30.55,2 
DISL,ioos:station:DISL:PPTA:1,2016-09-03T05:00:00Z,30.2791,-87.5561,0.0,30.6,2 
DISL,ioos:station:DISL:PPTA:1,2016-09-03T05:30:00Z,30.2791,-87.5561,0.0,30.53,2 
DISL,ioos:station:DISL:PPTA:1,2016-09-03T06:00:00Z,30.2791,-87.5561,0.0,30.11,2 
DISL,ioos:station:DISL:PPTA:1,2016-09-03T06:30:00Z,30.2791,-87.5561,0.0,30.41,2 
DISL,ioos:station:DISL:PPTA:1,2016-09-03T07:00:00Z,30.2791,-87.5561,0.0,30.36,2 
DISL,ioos:station:DISL:PPTA:1,2016-09-03T07:30:00Z,30.2791,-87.5561,0.0,30.48,2 
DISL,ioos:station:DISL:PPTA:1,2016-09-03T08:00:00Z,30.2791,-87.5561,0.0,30.14,2 
DISL,ioos:station:DISL:PPTA:1,2016-09-03T08:30:00Z,30.2791,-87.5561,0.0,30.4,2 
DISL,ioos:station:DISL:PPTA:1,2016-09-03T09:00:00Z,30.2791,-87.5561,0.0,30.24,2 
DISL,ioos:station:DISL:PPTA:1,2016-09-03T13:30:00Z,30.2791,-87.5561,0.0,30.27,2 
DISL,ioos:station:DISL:PPTA:1,2016-09-03T14:00:00Z,30.2791,-87.5561,0.0,30.3,2 
DISL,ioos:station:DISL:PPTA:1,2016-09-03T14:30:00Z,30.2791,-87.5561,0.0,29.85,2 
DISL,ioos:station:DISL:PPTA:1,2016-09-03T15:00:00Z,30.2791,-87.5561,0.0,29.82,2 
DISL,ioos:station:DISL:PPTA:1,2016-09-03T15:30:00Z,30.2791,-87.5561,0.0,29.82,2 
DISL,ioos:station:DISL:PPTA:1,2016-09-03T16:00:00Z,30.2791,-87.5561,0.0,29.81,2 
DISL,ioos:station:DISL:PPTA:1,2016-09-03T16:30:00Z,30.2791,-87.5561,0.0,29.83,2 
DISL,ioos:station:DISL:PPTA:1,2016-09-03T17:00:00Z,30.2791,-87.5561,0.0,29.85,2 
DISL,ioos:station:DISL:PPTA:1,2016-09-03T17:30:00Z,30.2791,-87.5561,0.0,29.9,2 
DISL,ioos:station:DISL:PPTA:1,2016-09-03T18:00:00Z,30.2791,-87.5561,0.0,29.94,2 
DISL,ioos:station:DISL:PPTA:1,2016-09-03T18:30:00Z,30.2791,-87.5561,0.0,30.02,2 
DISL,ioos:station:DISL:PPTA:1,2016-09-03T19:00:00Z,30.2791,-87.5561,0.0,30.2,2 
DISL,ioos:station:DISL:PPTA:1,2016-09-03T19:30:00Z,30.2791,-87.5561,0.0,31.02,2 
DISL,ioos:station:DISL:PPTA:1,2016-09-03T20:00:00Z,30.2791,-87.5561,0.0,31.14,2 
DISL,ioos:station:DISL:PPTA:1,2016-09-03T20:30:00Z,30.2791,-87.5561,0.0,31.08,2 
DISL,ioos:station:DISL:PPTA:1,2016-09-03T21:00:00Z,30.2791,-87.5561,0.0,30.94,2 
DISL,ioos:station:DISL:PPTA:1,2016-09-03T21:30:00Z,30.2791,-87.5561,0.0,30.97,2 
DISL,ioos:station:DISL:PPTA:1,2016-09-03T22:00:00Z,30.2791,-87.5561,0.0,30.76,2 
DISL,ioos:station:DISL:PPTA:1,2016-09-03T22:30:00Z,30.2791,-87.5561,0.0,30.7,2 
DISL,ioos:station:DISL:PPTA:1,2016-09-03T23:00:00Z,30.2791,-87.5561,0.0,30.82,2 
DISL,ioos:station:DISL:PPTA:1,2016-09-03T23:30:00Z,30.2791,-87.5561,0.0,30.65,2 
DISL,ioos:station:DISL:PPTA:1,2016-09-04T00:00:00Z,30.2791,-87.5561,0.0,30.73,2 
DISL,ioos:station:DISL:PPTA:1,2016-09-04T00:30:00Z,30.2791,-87.5561,0.0,30.95,2 
DISL,ioos:station:DISL:PPTA:1,2016-09-04T01:00:00Z,30.2791,-87.5561,0.0,30.78,2 
DISL,ioos:station:DISL:PPTA:1,2016-09-04T01:30:00Z,30.2791,-87.5561,0.0,30.76,2 
DISL,ioos:station:DISL:PPTA:1,2016-09-04T02:00:00Z,30.2791,-87.5561,0.0,30.64,2 
DISL,ioos:station:DISL:PPTA:1,2016-09-04T02:30:00Z,30.2791,-87.5561,0.0,30.49,2 
DISL,ioos:station:DISL:PPTA:1,2016-09-04T03:00:00Z,30.2791,-87.5561,0.0,30.5,2 
DISL,ioos:station:DISL:PPTA:1,2016-09-04T03:30:00Z,30.2791,-87.5561,0.0,30.62,2 
DISL,ioos:station:DISL:PPTA:1,2016-09-04T04:00:00Z,30.2791,-87.5561,0.0,30.69,2 
DISL,ioos:station:DISL:PPTA:1,2016-09-04T04:30:00Z,30.2791,-87.5561,0.0,30.33,2 
DISL,ioos:station:DISL:PPTA:1,2016-09-04T05:00:00Z,30.2791,-87.5561,0.0,30.33,2 
DISL,ioos:station:DISL:PPTA:1,2016-09-04T05:30:00Z,30.2791,-87.5561,0.0,30.69,2 
DISL,ioos:station:DISL:PPTA:1,2016-09-04T06:00:00Z,30.2791,-87.5561,0.0,30.54,2 
DISL,ioos:station:DISL:PPTA:1,2016-09-04T06:30:00Z,30.2791,-87.5561,0.0,30.67,2 
DISL,ioos:station:DISL:PPTA:1,2016-09-04T07:00:00Z,30.2791,-87.5561,0.0,30.68,2 
DISL,ioos:station:DISL:PPTA:1,2016-09-04T07:30:00Z,30.2791,-87.5561,0.0,30.02,2 
DISL,ioos:station:DISL:PPTA:1,2016-09-04T08:00:00Z,30.2791,-87.5561,0.0,30.02,2 
DISL,ioos:station:DISL:PPTA:1,2016-09-04T08:30:00Z,30.2791,-87.5561,0.0,29.99,2 
DISL,ioos:station:DISL:PPTA:1,2016-09-04T09:00:00Z,30.2791,-87.5561,0.0,29.69,2 
DISL,ioos:station:DISL:PPTA:1,2016-09-04T09:30:00Z,30.2791,-87.5561,0.0,30.58,2 
DISL,ioos:station:DISL:PPTA:1,2016-09-04T10:00:00Z,30.2791,-87.5561,0.0,30.25,2 
DISL,ioos:station:DISL:PPTA:1,2016-09-04T10:30:00Z,30.2791,-87.5561,0.0,30.3,2 
DISL,ioos:station:DISL:PPTA:1,2016-09-04T11:00:00Z,30.2791,-87.5561,0.0,29.98,2 
DISL,ioos:station:DISL:PPTA:1,2016-09-04T11:30:00Z,30.2791,-87.5561,0.0,30.4,2 
DISL,ioos:station:DISL:PPTA:1,2016-09-04T12:00:00Z,30.2791,-87.5561,0.0,29.69,2 
DISL,ioos:station:DISL:PPTA:1,2016-09-04T12:30:00Z,30.2791,-87.5561,0.0,30.16,2 
DISL,ioos:station:DISL:PPTA:1,2016-09-04T13:00:00Z,30.2791,-87.5561,0.0,30.31,2 
DISL,ioos:station:DISL:PPTA:1,2016-09-04T13:30:00Z,30.2791,-87.5561,0.0,30.21,2 
DISL,ioos:station:DISL:PPTA:1,2016-09-04T14:00:00Z,30.2791,-87.5561,0.0,30.14,2 
DISL,ioos:station:DISL:PPTA:1,2016-09-04T14:30:00Z,30.2791,-87.5561,0.0,29.82,2 
DISL,ioos:station:DISL:PPTA:1,2016-09-04T15:00:00Z,30.2791,-87.5561,0.0,30.1,2 
DISL,ioos:station:DISL:PPTA:1,2016-09-04T15:30:00Z,30.2791,-87.5561,0.0,29.84,2 
DISL,ioos:station:DISL:PPTA:1,2016-09-04T16:00:00Z,30.2791,-87.5561,0.0,30.43,2 
DISL,ioos:station:DISL:PPTA:1,2016-09-04T16:30:00Z,30.2791,-87.5561,0.0,30.32,2 
DISL,ioos:station:DISL:PPTA:1,2016-09-04T17:00:00Z,30.2791,-87.5561,0.0,30.09,2 
DISL,ioos:station:DISL:PPTA:1,2016-09-04T17:30:00Z,30.2791,-87.5561,0.0,30.24,2 
DISL,ioos:station:DISL:PPTA:1,2016-09-04T18:00:00Z,30.2791,-87.5561,0.0,30.05,2 
DISL,ioos:station:DISL:PPTA:1,2016-09-04T18:30:00Z,30.2791,-87.5561,0.0,30.12,2 
DISL,ioos:station:DISL:PPTA:1,2016-09-04T19:00:00Z,30.2791,-87.5561,0.0,30.14,2 
DISL,ioos:station:DISL:PPTA:1,2016-09-04T19:30:00Z,30.2791,-87.5561,0.0,29.86,2 
DISL,ioos:station:DISL:PPTA:1,2016-09-04T20:00:00Z,30.2791,-87.5561,0.0,29.8,2 
DISL,ioos:station:DISL:PPTA:1,2016-09-04T20:30:00Z,30.2791,-87.5561,0.0,29.85,2 
DISL,ioos:station:DISL:PPTA:1,2016-09-04T21:00:00Z,30.2791,-87.5561,0.0,29.85,2 
DISL,ioos:station:DISL:PPTA:1,2016-09-04T21:30:00Z,30.2791,-87.5561,0.0,29.76,2 
DISL,ioos:station:DISL:PPTA:1,2016-09-04T22:00:00Z,30.2791,-87.5561,0.0,29.97,2 
DISL,ioos:station:DISL:PPTA:1,2016-09-04T22:30:00Z,30.2791,-87.5561,0.0,29.97,2 
DISL,ioos:station:DISL:PPTA:1,2016-09-04T23:00:00Z,30.2791,-87.5561,0.0,29.74,2 
DISL,ioos:station:DISL:PPTA:1,2016-09-04T23:30:00Z,30.2791,-87.5561,0.0,29.89,2 
DISL,ioos:station:DISL:PPTA:1,2016-09-05T00:00:00Z,30.2791,-87.5561,0.0,29.83,2 
DISL,ioos:station:DISL:PPTA:1,2016-09-05T00:30:00Z,30.2791,-87.5561,0.0,29.93,2 
DISL,ioos:station:DISL:PPTA:1,2016-09-05T01:00:00Z,30.2791,-87.5561,0.0,29.49,2 
DISL,ioos:station:DISL:PPTA:1,2016-09-05T01:30:00Z,30.2791,-87.5561,0.0,30.09,2 
DISL,ioos:station:DISL:PPTA:1,2016-09-05T02:00:00Z,30.2791,-87.5561,0.0,29.69,2 
DISL,ioos:station:DISL:PPTA:1,2016-09-05T02:30:00Z,30.2791,-87.5561,0.0,30.13,2 
DISL,ioos:station:DISL:PPTA:1,2016-09-05T03:00:00Z,30.2791,-87.5561,0.0,29.72,2 
DISL,ioos:station:DISL:PPTA:1,2016-09-05T03:30:00Z,30.2791,-87.5561,0.0,30.06,2 
DISL,ioos:station:DISL:PPTA:1,2016-09-05T04:00:00Z,30.2791,-87.5561,0.0,29.81,2 
DISL,ioos:station:DISL:PPTA:1,2016-09-05T04:30:00Z,30.2791,-87.5561,0.0,29.86,2 
DISL,ioos:station:DISL:PPTA:1,2016-09-05T05:00:00Z,30.2791,-87.5561,0.0,29.8,2 
DISL,ioos:station:DISL:PPTA:1,2016-09-05T05:30:00Z,30.2791,-87.5561,0.0,29.8,2 
DISL,ioos:station:DISL:PPTA:1,2016-09-05T06:00:00Z,30.2791,-87.5561,0.0,29.79,2 
DISL,ioos:station:DISL:PPTA:1,2016-09-05T06:30:00Z,30.2791,-87.5561,0.0,29.79,2 
DISL,ioos:station:DISL:PPTA:1,2016-09-05T13:30:00Z,30.2791,-87.5561,0.0,29.13,2 
DISL,ioos:station:DISL:PPTA:1,2016-09-05T14:00:00Z,30.2791,-87.5561,0.0,28.96,2 
DISL,ioos:station:DISL:PPTA:1,2016-09-05T14:30:00Z,30.2791,-87.5561,0.0,28.91,2 
DISL,ioos:station:DISL:PPTA:1,2016-09-05T15:00:00Z,30.2791,-87.5561,0.0,28.95,2 
DISL,ioos:station:DISL:PPTA:1,2016-09-05T15:30:00Z,30.2791,-87.5561,0.0,29.41,2 
DISL,ioos:station:DISL:PPTA:1,2016-09-05T16:00:00Z,30.2791,-87.5561,0.0,28.97,2 
DISL,ioos:station:DISL:PPTA:1,2016-09-05T16:30:00Z,30.2791,-87.5561,0.0,28.96,2 
DISL,ioos:station:DISL:PPTA:1,2016-09-05T17:00:00Z,30.2791,-87.5561,0.0,28.95,2 
DISL,ioos:station:DISL:PPTA:1,2016-09-05T17:30:00Z,30.2791,-87.5561,0.0,28.91,2 
DISL,ioos:station:DISL:PPTA:1,2016-09-05T18:00:00Z,30.2791,-87.5561,0.0,28.99,2 
DISL,ioos:station:DISL:PPTA:1,2016-09-05T18:30:00Z,30.2791,-87.5561,0.0,29.05,2 
DISL,ioos:station:DISL:PPTA:1,2016-09-05T19:00:00Z,30.2791,-87.5561,0.0,28.98,2 
DISL,ioos:station:DISL:PPTA:1,2016-09-05T19:30:00Z,30.2791,-87.5561,0.0,28.96,2 
DISL,ioos:station:DISL:PPTA:1,2016-09-05T20:00:00Z,30.2791,-87.5561,0.0,29.41,2 
DISL,ioos:station:DISL:PPTA:1,2016-09-05T20:30:00Z,30.2791,-87.5561,0.0,29.18,2 
DISL,ioos:station:DISL:PPTA:1,2016-09-05T21:00:00Z,30.2791,-87.5561,0.0,29.04,2 
DISL,ioos:station:DISL:PPTA:1,2016-09-05T21:30:00Z,30.2791,-87.5561,0.0,29.07,2 
DISL,ioos:station:DISL:PPTA:1,2016-09-05T22:00:00Z,30.2791,-87.5561,0.0,29.31,2 
DISL,ioos:station:DISL:PPTA:1,2016-09-05T22:30:00Z,30.2791,-87.5561,0.0,28.99,2 
DISL,ioos:station:DISL:PPTA:1,2016-09-05T23:00:00Z,30.2791,-87.5561,0.0,29.02,2 
DISL,ioos:station:DISL:PPTA:1,2016-09-05T23:30:00Z,30.2791,-87.5561,0.0,28.9,2 
DISL,ioos:station:DISL:PPTA:1,2016-09-06T00:00:00Z,30.2791,-87.5561,0.0,28.85,2 
DISL,ioos:station:DISL:PPTA:1,2016-09-06T00:30:00Z,30.2791,-87.5561,0.0,29.02,2 
DISL,ioos:station:DISL:PPTA:1,2016-09-06T01:00:00Z,30.2791,-87.5561,0.0,28.96,2 
DISL,ioos:station:DISL:PPTA:1,2016-09-06T01:30:00Z,30.2791,-87.5561,0.0,28.98,2 
DISL,ioos:station:DISL:PPTA:1,2016-09-06T02:00:00Z,30.2791,-87.5561,0.0,29.02,2 
DISL,ioos:station:DISL:PPTA:1,2016-09-06T02:30:00Z,30.2791,-87.5561,0.0,29.26,2 
DISL,ioos:station:DISL:PPTA:1,2016-09-06T03:00:00Z,30.2791,-87.5561,0.0,29.05,2 
DISL,ioos:station:DISL:PPTA:1,2016-09-06T03:30:00Z,30.2791,-87.5561,0.0,28.97,2 
DISL,ioos:station:DISL:PPTA:1,2016-09-06T04:00:00Z,30.2791,-87.5561,0.0,28.96,2 
DISL,ioos:station:DISL:PPTA:1,2016-09-06T04:30:00Z,30.2791,-87.5561,0.0,28.86,2 
DISL,ioos:station:DISL:PPTA:1,2016-09-06T05:00:00Z,30.2791,-87.5561,0.0,28.86,2 
DISL,ioos:station:DISL:PPTA:1,2016-09-06T05:30:00Z,30.2791,-87.5561,0.0,28.83,2 
DISL,ioos:station:DISL:PPTA:1,2016-09-06T06:00:00Z,30.2791,-87.5561,0.0,28.82,2 
DISL,ioos:station:DISL:PPTA:1,2016-09-06T06:30:00Z,30.2791,-87.5561,0.0,28.82,2 
DISL,ioos:station:DISL:PPTA:1,2016-09-06T07:00:00Z,30.2791,-87.5561,0.0,28.77,2 
DISL,ioos:station:DISL:PPTA:1,2016-09-06T07:30:00Z,30.2791,-87.5561,0.0,28.79,2 
DISL,ioos:station:DISL:PPTA:1,2016-09-06T08:00:00Z,30.2791,-87.5561,0.0,28.78,2 
DISL,ioos:station:DISL:PPTA:1,2016-09-06T08:30:00Z,30.2791,-87.5561,0.0,28.79,2 
DISL,ioos:station:DISL:PPTA:1,2016-09-06T09:00:00Z,30.2791,-87.5561,0.0,28.77,2 
DISL,ioos:station:DISL:PPTA:1,2016-09-06T09:30:00Z,30.2791,-87.5561,0.0,28.75,2 
DISL,ioos:station:DISL:PPTA:1,2016-09-06T10:00:00Z,30.2791,-87.5561,0.0,28.8,2 
DISL,ioos:station:DISL:PPTA:1,2016-09-06T10:30:00Z,30.2791,-87.5561,0.0,28.79,2 
DISL,ioos:station:DISL:PPTA:1,2016-09-06T11:00:00Z,30.2791,-87.5561,0.0,28.18,2 
DISL,ioos:station:DISL:PPTA:1,2016-09-06T11:30:00Z,30.2791,-87.5561,0.0,28.19,2 
DISL,ioos:station:DISL:PPTA:1,2016-09-06T12:00:00Z,30.2791,-87.5561,0.0,28.54,2 
DISL,ioos:station:DISL:PPTA:1,2016-09-06T12:30:00Z,30.2791,-87.5561,0.0,28.02,2 
DISL,ioos:station:DISL:PPTA:1,2016-09-06T13:00:00Z,30.2791,-87.5561,0.0,28.39,2 
DISL,ioos:station:DISL:PPTA:1,2016-09-06T13:30:00Z,30.2791,-87.5561,0.0,28.28,2 
DISL,ioos:station:DISL:PPTA:1,2016-09-06T14:00:00Z,30.2791,-87.5561,0.0,28.56,2 
DISL,ioos:station:DISL:PPTA:1,2016-09-06T14:30:00Z,30.2791,-87.5561,0.0,28.3,2 
DISL,ioos:station:DISL:PPTA:1,2016-09-06T15:00:00Z,30.2791,-87.5561,0.0,28.4,2 
DISL,ioos:station:DISL:PPTA:1,2016-09-06T15:30:00Z,30.2791,-87.5561,0.0,28.33,2 
DISL,ioos:station:DISL:PPTA:1,2016-09-06T16:00:00Z,30.2791,-87.5561,0.0,28.36,2 
DISL,ioos:station:DISL:PPTA:1,2016-09-06T16:30:00Z,30.2791,-87.5561,0.0,28.6,2 
DISL,ioos:station:DISL:PPTA:1,2016-09-06T17:00:00Z,30.2791,-87.5561,0.0,28.43,2 
DISL,ioos:station:DISL:PPTA:1,2016-09-06T17:30:00Z,30.2791,-87.5561,0.0,28.75,2 
DISL,ioos:station:DISL:PPTA:1,2016-09-06T18:00:00Z,30.2791,-87.5561,0.0,28.6,2 
DISL,ioos:station:DISL:PPTA:1,2016-09-06T18:30:00Z,30.2791,-87.5561,0.0,28.74,2 
DISL,ioos:station:DISL:PPTA:1,2016-09-06T19:00:00Z,30.2791,-87.5561,0.0,28.84,2 
DISL,ioos:station:DISL:PPTA:1,2016-09-06T19:30:00Z,30.2791,-87.5561,0.0,28.95,2 
DISL,ioos:station:DISL:PPTA:1,2016-09-06T20:00:00Z,30.2791,-87.5561,0.0,29.38,2 
DISL,ioos:station:DISL:PPTA:1,2016-09-06T20:30:00Z,30.2791,-87.5561,0.0,29.45,2 
DISL,ioos:station:DISL:PPTA:1,2016-09-06T21:00:00Z,30.2791,-87.5561,0.0,29.35,2 
DISL,ioos:station:DISL:PPTA:1,2016-09-06T21:30:00Z,30.2791,-87.5561,0.0,29.26,2 
DISL,ioos:station:DISL:PPTA:1,2016-09-06T22:00:00Z,30.2791,-87.5561,0.0,29.42,2 
DISL,ioos:station:DISL:PPTA:1,2016-09-06T22:30:00Z,30.2791,-87.5561,0.0,29.37,2 
DISL,ioos:station:DISL:PPTA:1,2016-09-06T23:00:00Z,30.2791,-87.5561,0.0,29.31,2 
DISL,ioos:station:DISL:PPTA:1,2016-09-06T23:30:00Z,30.2791,-87.5561,0.0,29.29,2 
DISL,ioos:station:DISL:PPTA:1,2016-09-07T00:00:00Z,30.2791,-87.5561,0.0,29.0,2 
DISL,ioos:station:DISL:PPTA:1,2016-09-07T00:30:00Z,30.2791,-87.5561,0.0,29.07,2 
DISL,ioos:station:DISL:PPTA:1,2016-09-07T01:00:00Z,30.2791,-87.5561,0.0,29.1,2 
DISL,ioos:station:DISL:PPTA:1,2016-09-07T01:30:00Z,30.2791,-87.5561,0.0,29.15,2 
DISL,ioos:station:DISL:PPTA:1,2016-09-07T02:00:00Z,30.2791,-87.5561,0.0,29.15,2 
DISL,ioos:station:DISL:PPTA:1,2016-09-07T02:30:00Z,30.2791,-87.5561,0.0,29.2,2 
DISL,ioos:station:DISL:PPTA:1,2016-09-07T03:00:00Z,30.2791,-87.5561,0.0,29.21,2 
DISL,ioos:station:DISL:PPTA:1,2016-09-07T03:30:00Z,30.2791,-87.5561,0.0,29.2,2 
DISL,ioos:station:DISL:PPTA:1,2016-09-07T04:00:00Z,30.2791,-87.5561,0.0,29.18,2 
DISL,ioos:station:DISL:PPTA:1,2016-09-07T04:30:00Z,30.2791,-87.5561,0.0,29.16,2 
DISL,ioos:station:DISL:PPTA:1,2016-09-07T05:00:00Z,30.2791,-87.5561,0.0,29.15,2 
DISL,ioos:station:DISL:PPTA:1,2016-09-07T05:30:00Z,30.2791,-87.5561,0.0,29.14,2 
DISL,ioos:station:DISL:PPTA:1,2016-09-07T06:00:00Z,30.2791,-87.5561,0.0,29.12,2 
DISL,ioos:station:DISL:PPTA:1,2016-09-07T06:30:00Z,30.2791,-87.5561,0.0,29.12,2 
DISL,ioos:station:DISL:PPTA:1,2016-09-07T07:00:00Z,30.2791,-87.5561,0.0,29.11,2 
DISL,ioos:station:DISL:PPTA:1,2016-09-07T07:30:00Z,30.2791,-87.5561,0.0,29.1,2 
DISL,ioos:station:DISL:PPTA:1,2016-09-07T08:00:00Z,30.2791,-87.5561,0.0,29.09,2 
DISL,ioos:station:DISL:PPTA:1,2016-09-07T08:30:00Z,30.2791,-87.5561,0.0,29.09,2 
DISL,ioos:station:DISL:PPTA:1,2016-09-07T09:00:00Z,30.2791,-87.5561,0.0,29.04,2 
DISL,ioos:station:DISL:PPTA:1,2016-09-07T09:30:00Z,30.2791,-87.5561,0.0,29.12,2 
DISL,ioos:station:DISL:PPTA:1,2016-09-07T10:00:00Z,30.2791,-87.5561,0.0,29.07,2 
DISL,ioos:station:DISL:PPTA:1,2016-09-07T10:30:00Z,30.2791,-87.5561,0.0,29.03,2 
DISL,ioos:station:DISL:PPTA:1,2016-09-07T11:00:00Z,30.2791,-87.5561,0.0,28.12,2 
DISL,ioos:station:DISL:PPTA:1,2016-09-07T11:30:00Z,30.2791,-87.5561,0.0,28.93,2 
DISL,ioos:station:DISL:PPTA:1,2016-09-07T12:00:00Z,30.2791,-87.5561,0.0,28.81,2 
DISL,ioos:station:DISL:PPTA:1,2016-09-07T12:30:00Z,30.2791,-87.5561,0.0,28.63,2 
DISL,ioos:station:DISL:PPTA:1,2016-09-07T13:00:00Z,30.2791,-87.5561,0.0,28.57,2 
DISL,ioos:station:DISL:PPTA:1,2016-09-07T13:30:00Z,30.2791,-87.5561,0.0,28.64,2 
DISL,ioos:station:DISL:PPTA:1,2016-09-07T14:00:00Z,30.2791,-87.5561,0.0,28.89,2 
DISL,ioos:station:DISL:PPTA:1,2016-09-07T14:30:00Z,30.2791,-87.5561,0.0,28.7,2 